Wind_Speed
18 23 11 3 11 33 42 39 35 35 42 43 38 33 33 29 20 16 22 23 19 19 16 13 11 15 20 22 21 18 19 28 27 22 29 37 36 38 38 34 31 30 29 25 21 21 23 23 22 21 19 20 20 21 21 21 21 22 24 26 27 26 25 23 21 19 19 21 22 24 26 27 27 27 26 26 26 25 24 23 22 22 22 21 20 20 19
14 19 17 5 5 12 26 36 39 35 36 43 43 33 28 30 25 18 20 24 21 16 11 10 15 22 24 22 19 17 20 24 23 23 33 41 39 39 38 34 30 27 27 25 22 22 22 22 22 20 19 19 19 19 18 17 19 20 22 25 27 27 27 26 23 21 20 20 21 23 24 25 25 25 25 25 25 24 24 22 22 22 21 21 19 18 17
10 16 19 13 9 7 9 23 36 37 33 38 43 38 28 26 25 23 23 24 21 17 13 15 20 25 26 24 21 20 20 20 21 29 40 42 40 40 37 32 28 26 26 26 25 24 25 25 24 21 20 20 20 19 18 17 18 19 20 22 25 27 27 27 26 25 23 22 21 23 24 24 24 24 24 24 24 24 23 22 21 20 20 20 19 17 15
9 15 24 15 11 11 9 10 23 31 30 32 41 42 33 26 26 25 23 22 23 25 25 25 26 27 27 26 26 28 26 21 22 31 37 38 39 39 34 28 25 25 25 27 27 26 27 28 27 24 22 22 21 21 21 19 19 19 19 19 21 23 25 25 26 27 27 25 23 23 23 23 23 23 24 24 24 24 22 21 20 19 19 19 18 17 15
13 8 23 19 13 9 12 11 17 23 17 20 37 43 35 28 27 26 24 26 30 29 27 27 28 28 28 26 27 30 27 23 23 26 27 27 28 27 26 24 24 24 25 26 26 26 27 27 25 24 23 24 24 23 23 22 21 20 19 19 18 19 20 22 24 27 28 29 27 25 24 23 23 23 24 25 24 23 22 21 20 19 18 18 17 17 16
16 2 13 17 11 5 7 9 19 21 6 6 26 42 37 28 26 27 24 22 25 27 24 25 28 25 23 25 28 30 28 26 26 25 23 21 19 17 19 21 22 22 24 25 24 22 23 23 23 24 26 26 26 25 24 24 23 21 20 20 19 17 16 18 20 24 27 30 30 29 27 25 24 24 25 25 24 23 22 21 21 20 19 18 18 18 17
17 6 5 8 6 5 9 12 19 16 1 5 16 38 39 27 22 27 27 22 24 30 29 27 29 27 22 22 26 29 27 24 25 27 27 23 18 18 19 19 19 20 21 22 20 18 18 19 20 23 26 28 28 26 25 24 23 22 21 20 19 17 16 16 16 18 22 26 30 31 30 29 28 27 26 25 25 24 23 23 23 21 20 20 19 19 18
12 8 3 6 4 5 12 15 12 6 4 3 16 27 18 7 7 19 31 31 27 26 27 27 30 29 23 21 24 25 24 22 22 25 27 23 17 18 20 17 16 19 21 21 20 19 19 20 21 20 20 23 25 26 25 25 23 22 21 21 20 18 18 18 17 16 16 19 24 29 32 33 32 30 28 27 26 26 25 25 24 24 23 22 21 21 20
11 14 8 6 4 4 4 2 3 3 7 1 13 21 18 8 11 14 25 36 33 26 25 27 29 28 24 23 23 22 24 27 25 21 20 20 17 16 18 15 12 15 17 16 16 17 18 19 21 22 20 20 22 22 23 23 22 21 20 19 19 18 18 19 18 17 16 15 17 20 27 32 34 33 31 29 28 27 27 27 27 26 25 24 24 23 23
12 18 11 5 4 3 10 13 3 4 6 1 11 18 23 15 18 17 22 31 33 31 31 28 26 26 26 25 24 23 24 26 26 20 18 19 18 16 16 15 13 14 17 15 12 14 16 16 17 18 20 21 22 22 21 20 19 19 18 17 17 17 18 19 19 18 16 15 14 15 18 23 30 34 34 32 30 29 29 29 28 28 27 26 26 26 26
15 15 10 2 1 6 13 9 6 8 6 5 15 14 24 21 23 25 27 31 32 33 34 30 27 28 28 25 25 25 24 23 25 25 22 20 17 15 17 18 17 17 18 16 14 15 18 18 17 17 18 19 21 22 22 20 19 18 17 15 15 15 16 18 20 20 18 16 15 14 13 15 20 29 34 35 34 32 31 31 30 29 29 29 29 28 27
13 12 9 6 6 9 11 5 8 8 5 11 15 9 14 18 24 24 25 30 32 33 34 31 30 31 29 26 26 27 25 23 24 25 24 21 18 15 17 20 21 22 20 20 21 22 21 22 22 21 20 20 20 21 21 21 21 19 17 16 14 14 15 17 19 20 20 18 15 14 14 14 15 21 29 35 36 35 34 33 32 32 32 31 31 30 29
12 10 8 5 6 7 9 6 2 11 11 8 13 11 8 13 20 21 26 31 30 31 36 36 34 33 31 29 28 28 26 23 21 22 21 21 21 20 20 20 21 22 21 22 25 27 26 27 26 24 23 22 21 21 21 21 21 19 19 18 16 15 16 17 19 21 21 19 18 16 16 16 16 18 23 30 34 36 36 35 35 35 34 33 33 32 31
12 10 7 5 6 8 9 9 3 10 13 11 17 15 10 10 13 17 26 29 26 28 35 39 37 34 32 31 28 26 26 24 23 23 21 20 21 23 24 22 20 20 22 23 24 24 25 28 28 27 25 24 23 23 23 23 22 22 22 21 20 19 18 18 19 21 21 20 19 18 18 19 19 20 21 25 30 34 36 36 36 36 35 35 34 34 34
10 9 6 3 5 10 11 9 7 6 13 15 15 13 12 13 15 16 21 26 25 24 29 34 34 32 29 27 24 23 24 25 24 23 21 18 18 22 24 23 21 21 22 22 22 22 24 26 28 28 28 27 26 26 25 24 25 25 24 24 23 22 21 20 20 20 20 20 19 19 20 21 22 23 23 23 27 30 34 36 37 37 36 36 36 36 36
6 7 7 7 6 10 10 9 16 18 12 7 9 11 12 14 16 14 17 23 24 22 24 28 29 28 28 26 25 24 24 24 22 20 18 16 18 20 21 21 21 23 24 24 22 22 24 25 26 28 30 30 30 29 28 27 26 27 26 26 25 25 24 23 22 21 21 21 21 20 20 21 24 26 25 25 27 29 32 35 36 36 36 36 37 37 38
5 4 6 9 9 8 6 7 15 16 9 1 7 10 10 12 15 14 14 18 20 21 24 25 25 25 26 25 25 25 24 23 20 18 19 20 22 23 23 22 22 24 25 25 24 23 24 24 24 26 29 31 32 31 30 29 29 29 29 28 27 27 27 26 25 24 24 24 23 22 21 22 25 27 27 28 29 31 32 33 34 35 35 36 37 38 38
1 4 3 5 5 2 1 1 4 5 2 2 7 11 10 10 11 13 13 13 15 17 20 23 24 24 23 22 21 22 23 22 22 23 25 27 27 27 26 25 26 26 26 25 24 23 23 24 24 24 26 28 30 31 31 30 30 30 30 29 29 28 28 28 28 26 26 26 25 24 23 23 25 26 28 30 32 32 33 33 33 34 35 36 37 38 39
4 5 4 2 6 7 3 3 4 7 9 7 6 9 10 9 9 11 11 11 12 14 14 16 18 18 17 17 17 19 22 23 24 25 25 26 26 25 25 27 28 28 27 26 25 24 23 24 25 25 24 25 27 30 31 30 30 30 31 30 30 29 29 30 30 28 28 28 27 26 26 25 25 26 27 29 32 34 34 33 34 34 36 37 38 39 39
6 3 4 5 10 12 9 8 9 13 17 15 9 8 11 11 9 10 10 9 10 11 11 12 14 14 13 15 15 17 20 21 21 21 21 21 21 20 21 22 24 25 25 25 25 24 24 25 25 25 23 23 24 27 29 30 30 31 30 30 29 29 30 30 31 30 29 28 28 28 28 28 27 27 27 28 30 33 34 35 36 37 37 38 39 40 40
9 5 6 10 12 11 6 8 11 14 18 21 17 13 12 11 11 12 11 9 8 8 8 10 13 13 13 15 16 16 16 16 16 17 16 15 14 14 15 16 18 19 19 20 22 23 24 25 25 25 24 23 22 24 27 29 30 30 29 27 27 27 28 29 31 31 30 30 30 30 30 30 30 29 29 29 30 30 32 35 37 38 39 39 40 40 40
12 8 7 11 13 11 6 6 8 10 14 20 22 19 17 15 12 10 8 6 6 7 8 10 13 13 13 14 15 15 14 15 15 15 13 11 11 11 11 13 13 14 14 15 17 20 22 23 24 25 25 24 23 23 24 27 29 30 28 27 25 25 25 27 29 31 31 31 31 31 32 31 31 31 31 31 31 31 31 32 33 35 36 37 38 38 37
18 15 12 12 15 15 13 13 13 14 18 22 24 23 22 21 18 16 14 11 8 7 8 11 13 13 13 13 13 12 11 13 15 14 11 10 10 9 10 11 11 12 12 12 14 16 19 20 22 23 23 24 24 24 23 25 27 29 28 27 24 23 23 24 26 29 31 32 33 33 32 31 30 31 31 31 32 31 30 29 29 30 31 32 33 32 32
22 20 19 21 22 21 20 22 24 25 26 27 28 27 27 26 25 23 21 19 17 15 13 13 13 13 13 12 11 9 9 11 12 12 11 11 10 10 10 11 12 12 13 13 13 15 16 17 18 19 20 22 24 24 24 24 25 27 28 27 24 23 23 23 24 25 26 28 30 30 29 28 27 27 27 27 28 27 26 26 25 26 26 26 26 25 25
26 24 22 25 30 29 26 28 33 35 33 32 32 31 30 31 30 28 26 25 24 22 20 19 19 18 17 15 13 12 12 13 14 14 14 14 13 13 13 14 14 15 16 16 16 16 16 16 17 17 18 20 22 23 23 24 24 25 27 28 26 24 24 23 23 22 23 24 24 23 23 22 22 21 22 22 23 23 22 22 22 22 22 22 22 21 21
30 29 27 28 33 35 33 33 36 39 39 39 39 38 37 36 35 34 32 30 29 28 27 26 26 25 24 22 20 18 18 19 20 20 19 19 19 19 19 19 19 20 20 20 20 19 19 18 16 15 16 18 20 22 22 23 23 24 25 27 27 26 25 24 23 22 21 21 20 20 20 20 19 19 20 20 21 21 21 20 20 20 20 20 20 20 20
34 33 32 34 35 36 36 37 39 40 41 43 43 43 44 44 41 39 37 34 33 33 32 31 31 31 30 30 28 26 25 25 25 25 25 25 25 25 25 26 26 27 26 25 24 23 22 20 18 16 15 17 19 20 21 22 23 23 24 25 26 26 25 24 22 21 20 20 20 20 20 19 18 19 19 20 20 20 19 19 18 18 18 19 19 20 21
37 35 36 38 38 36 35 37 40 41 42 43 44 45 47 48 47 46 44 41 39 38 37 36 36 36 36 36 34 33 31 30 29 30 30 31 31 31 30 30 30 30 30 29 28 27 26 24 22 19 17 17 19 20 20 20 21 21 22 23 24 23 22 20 20 19 19 19 20 20 19 18 17 17 18 19 19 19 19 19 19 19 19 20 20 21 22
39 37 37 39 40 38 36 37 39 41 42 42 43 44 46 48 50 50 49 47 46 44 42 41 39 40 40 40 38 35 33 31 30 30 31 31 31 30 29 29 29 30 31 31 30 30 29 28 26 24 21 19 19 20 21 20 20 20 20 20 20 20 19 18 18 18 18 18 18 18 18 18 18 18 20 21 21 20 20 22 22 22 21 21 22 22 22
35 36 38 39 40 40 40 39 38 39 39 39 40 41 43 47 50 51 50 49 49 48 47 44 42 41 41 39 38 35 30 26 25 26 26 26 25 24 24 25 26 26 26 27 28 28 28 28 27 26 24 22 20 20 20 21 21 21 21 20 19 18 18 18 18 18 19 19 20 20 20 20 20 21 21 22 22 22 23 24 23 23 22 22 22 22 22
25 30 36 39 40 41 41 41 39 37 36 36 36 36 38 42 46 49 50 50 50 50 49 46 44 43 42 40 39 36 32 27 24 23 23 22 22 20 20 20 22 23 24 25 26 27 27 27 26 24 22 21 21 20 20 21 22 22 22 21 21 20 20 20 20 21 22 22 23 23 23 23 23 24 24 24 24 24 25 25 24 23 22 22 22 22 23
17 25 31 34 37 38 38 38 38 37 36 35 33 33 33 36 39 43 45 47 49 50 49 47 45 44 43 41 39 36 33 30 26 24 24 23 21 20 19 19 21 24 26 26 26 27 26 26 25 22 20 18 18 19 19 20 21 22 22 22 22 23 23 23 24 24 25 25 25 26 25 25 25 25 24 24 23 23 24 25 24 23 22 22 24 24 23
12 19 22 24 27 30 30 31 32 33 33 34 34 34 32 31 32 34 36 39 44 45 45 44 44 43 40 38 36 34 32 29 28 26 26 26 24 23 23 23 24 26 28 28 28 28 26 23 20 18 16 15 17 19 20 20 20 21 22 23 24 24 25 25 25 25 26 26 26 26 26 26 25 25 24 24 25 24 24 26 27 26 24 23 25 25 24
5 13 16 16 17 18 18 20 22 25 28 30 33 34 33 32 31 30 30 32 36 37 38 40 41 40 37 34 33 31 28 28 28 29 29 30 30 29 28 27 27 28 28 28 26 24 23 20 17 15 14 15 16 18 19 20 21 22 23 24 25 25 26 26 27 27 27 28 28 28 27 26 26 27 27 28 29 29 28 27 27 26 24 24 24 24 23
9 2 11 13 14 14 15 15 16 18 20 23 26 28 29 30 30 28 26 28 30 31 32 34 36 37 35 32 30 28 28 28 29 29 29 31 32 32 30 29 28 29 30 28 24 20 19 17 15 14 14 15 16 17 19 20 21 21 21 22 24 25 26 27 27 28 28 29 29 29 28 27 27 26 26 26 26 26 25 24 24 23 23 23 23 22 22
10 7 2 5 8 10 12 15 17 18 19 19 21 22 24 25 26 26 25 25 26 28 30 32 34 36 35 32 29 28 29 30 30 29 29 29 28 28 27 27 28 31 33 31 25 19 16 14 13 14 16 17 18 18 19 19 20 20 20 22 24 25 26 27 27 27 27 27 27 27 26 25 24 23 23 22 22 22 22 23 23 23 23 24 24 23 22
10 8 6 3 1 3 5 9 14 17 19 19 18 18 18 20 21 22 23 23 24 26 29 32 35 37 37 34 30 29 29 28 27 28 31 30 26 23 23 23 25 27 29 29 26 21 17 14 13 14 16 18 19 18 19 20 21 20 20 22 24 26 26 27 27 27 27 26 26 25 23 22 21 21 20 20 20 20 20 21 21 22 21 22 22 22 22
22 15 10 6 4 2 1 3 7 10 13 16 16 16 16 17 18 19 20 21 24 26 30 33 35 35 36 35 32 30 30 29 26 27 29 28 23 19 17 18 19 19 19 21 22 20 17 15 13 14 15 17 18 19 20 21 21 21 20 21 22 24 25 26 26 26 26 25 24 22 20 19 19 18 18 19 19 19 19 19 18 18 19 20 21 23 24
35 26 17 10 6 5 3 0 3 6 9 10 12 14 15 17 19 20 21 23 23 25 30 35 35 32 32 34 33 31 31 30 28 26 26 24 20 16 14 15 15 15 13 13 14 14 14 14 13 14 15 15 16 18 19 19 19 19 18 18 18 18 19 20 20 21 22 22 20 18 17 17 18 18 18 18 19 19 19 19 19 20 21 22 24 25 26
42 38 29 19 11 5 3 1 0 3 6 8 9 11 14 17 20 20 21 22 22 23 29 34 33 29 29 33 34 31 28 26 23 21 20 19 18 17 15 13 13 14 14 13 13 13 12 13 13 13 14 14 14 15 16 17 17 17 17 17 16 16 15 15 15 15 16 16 16 16 17 18 18 19 19 19 20 20 21 21 22 23 24 25 26 26 27
38 40 39 33 24 16 11 8 5 3 4 5 8 9 11 15 19 20 21 23 27 28 29 32 33 32 30 31 30 28 26 22 19 18 18 17 17 17 16 14 13 13 13 14 14 14 13 14 14 14 14 14 14 14 15 16 17 17 18 18 18 17 16 16 16 16 16 17 17 18 19 19 20 20 21 21 22 22 23 23 24 25 25 26 26 26 26
34 34 36 37 35 30 24 18 13 11 9 7 8 10 11 14 19 22 22 24 30 32 33 33 34 33 31 29 28 27 25 22 19 18 17 17 16 16 15 14 14 14 13 13 14 14 14 14 14 15 15 15 15 16 16 16 16 16 17 18 18 17 17 18 18 18 18 19 19 19 19 19 19 20 21 21 22 22 23 23 24 24 24 24 24 24 24
31 31 32 33 34 33 31 27 23 20 18 15 13 14 14 16 19 22 23 24 29 33 35 34 32 29 27 27 28 28 27 23 20 18 18 18 18 17 16 15 14 14 14 14 14 15 15 15 15 15 15 15 15 16 16 16 16 16 16 16 16 16 16 16 16 16 16 17 17 17 16 16 16 17 17 18 19 19 19 20 20 20 21 21 21 22 22
28 28 29 29 31 31 30 28 27 26 25 22 20 18 18 19 20 21 24 28 32 33 33 32 30 27 25 25 26 27 27 25 22 21 20 21 20 18 17 16 16 16 16 16 16 16 16 16 16 16 15 15 15 15 15 15 15 15 15 15 15 14 14 13 13 13 13 13 13 13 14 14 14 14 14 15 15 16 16 17 17 18 18 18 19 20 20
22 25 26 25 26 27 27 27 26 26 24 23 23 23 22 21 21 21 24 28 31 31 31 31 30 28 27 27 27 28 28 27 24 23 22 21 20 19 18 19 19 19 19 19 19 19 18 18 17 17 17 17 17 16 15 15 14 14 14 14 14 14 14 13 13 13 13 13 13 13 13 13 13 13 13 14 14 14 15 15 16 16 17 17 17 18 19
17 19 21 22 23 23 22 23 24 24 22 20 21 22 23 23 22 20 19 20 23 24 25 27 28 29 29 30 30 30 30 29 28 27 24 22 21 20 20 20 21 22 22 23 23 22 21 20 19 18 18 18 17 16 15 14 13 13 13 13 13 13 13 14 14 14 15 15 15 15 15 15 15 16 16 16 16 16 16 16 17 17 17 18 18 18 18
15 15 15 17 19 19 18 18 19 20 20 20 20 20 21 20 20 20 19 17 16 18 19 20 22 23 25 25 25 26 26 27 28 28 26 23 22 22 23 23 24 24 25 25 24 23 22 21 19 18 17 17 17 16 14 13 13 12 12 12 12 12 13 13 13 14 14 15 15 16 16 16 16 17 17 18 18 18 18 19 19 19 20 20 20 20 19
17 16 15 13 14 15 17 17 16 17 19 20 20 20 20 18 17 17 18 17 16 15 15 15 14 14 14 14 15 16 17 18 20 22 22 22 22 22 23 24 24 23 23 23 22 21 20 19 18 16 14 13 12 10 9 8 7 7 7 8 9 10 10 11 11 11 12 13 13 14 15 15 16 16 17 17 17 18 18 19 19 20 20 20 20 20 20
18 18 16 13 10 9 12 15 16 16 17 18 18 17 18 18 17 16 15 15 14 14 13 13 12 11 10 10 10 10 11 11 12 14 14 15 15 16 16 16 16 16 16 16 16 16 16 16 15 13 11 8 6 4 3 3 4 5 7 8 9 10 11 12 12 12 13 13 14 15 15 16 17 18 18 18 19 19 19 19 19 19 20 20 20 21 21
18 18 17 14 10 7 7 9 11 13 13 13 14 14 15 15 15 14 14 13 12 11 11 10 10 10 9 8 8 8 8 8 9 9 10 10 10 10 9 9 9 9 9 9 9 9 10 10 10 9 8 7 6 5 4 4 5 6 8 9 11 12 13 13 14 14 15 15 16 17 17 19 19 20 21 21 21 21 21 21 21 20 21 21 22 22 22
17 17 17 15 11 9 7 7 7 8 8 7 8 10 11 12 13 13 13 12 12 11 9 8 8 8 7 7 6 6 6 6 6 7 7 7 7 8 7 7 6 6 5 5 5 5 4 4 4 4 4 4 5 5 5 5 5 7 8 10 11 12 13 14 14 15 15 16 16 17 18 19 20 21 21 22 22 23 23 22 22 21 21 21 21 21 22
16 16 16 15 11 8 6 4 4 5 6 6 6 7 8 8 9 11 13 12 11 10 9 8 7 6 6 6 6 5 4 4 4 4 4 4 4 5 5 4 3 2 2 1 1 0 0 1 1 2 3 4 5 6 6 7 8 10 11 12 12 13 14 15 15 15 16 16 17 18 19 20 21 21 22 23 23 24 24 24 23 22 22 21 20 20 22
Wind_Direction
257 244 248 343 201 190 186 194 205 206 204 210 213 202 198 205 206 194 197 195 175 165 180 196 184 168 173 180 183 185 186 188 195 204 202 199 196 192 194 198 201 202 205 210 216 218 217 212 208 208 205 204 209 208 207 208 207 206 207 210 216 218 219 221 221 222 224 226 227 227 227 227 227 226 226 227 230 232 233 235 237 241 246 248 249 250 251
264 238 223 248 284 196 183 191 202 208 204 205 212 211 198 200 208 204 199 196 185 178 191 196 179 170 169 172 178 182 182 186 192 188 184 189 190 187 191 196 197 198 200 206 216 222 218 210 205 205 203 199 201 201 199 202 206 208 209 211 216 220 221 220 219 220 223 224 226 227 226 227 227 227 228 228 230 232 232 233 233 235 241 245 247 248 249
274 233 214 223 265 251 185 187 199 210 210 202 207 214 206 195 200 204 202 200 197 193 179 156 156 163 162 153 149 153 158 163 171 173 174 179 182 183 188 192 188 190 199 208 217 219 216 214 213 213 210 203 201 200 198 198 203 208 212 214 216 220 223 222 218 219 221 222 224 227 227 227 226 226 228 228 229 231 231 230 229 229 232 238 242 244 245
307 221 206 224 278 269 244 210 196 204 212 204 202 211 212 198 193 197 191 176 166 164 155 142 137 140 141 138 132 131 132 137 155 168 171 173 178 182 186 187 188 197 207 213 216 217 217 217 217 219 216 209 206 204 203 203 205 211 218 222 223 223 225 225 221 219 221 222 222 224 226 227 225 224 226 227 228 229 229 227 226 223 223 228 234 241 245
333 211 203 235 292 285 257 244 195 191 208 208 200 205 212 204 193 194 185 159 147 151 153 151 145 136 128 131 135 137 135 134 146 160 167 169 173 180 187 194 200 206 211 213 218 224 225 220 216 216 216 213 211 208 207 209 211 214 219 227 232 230 228 229 227 222 221 223 223 223 224 226 226 224 224 225 226 226 226 225 224 221 218 221 227 237 247
329 316 207 245 285 274 240 213 184 183 211 242 198 198 206 207 198 195 186 165 160 166 167 162 159 150 135 130 137 143 141 134 135 145 152 152 154 163 176 189 197 202 206 210 215 221 222 221 220 218 216 215 213 212 211 212 214 216 220 226 233 234 230 229 230 226 223 223 224 224 223 224 226 226 224 225 226 226 226 225 224 224 224 225 229 236 247
321 328 206 242 285 261 221 192 174 168 35 340 181 184 196 211 211 200 189 175 168 170 172 171 164 155 145 137 141 149 148 137 131 135 139 142 146 157 165 171 178 184 192 195 195 196 199 205 212 214 215 214 212 212 213 213 215 217 220 224 228 228 223 220 224 227 226 225 225 225 224 224 225 227 227 227 227 228 229 228 229 231 234 236 239 241 246
337 342 221 212 276 250 211 199 182 144 3 310 153 150 158 179 194 192 186 179 169 162 163 165 160 156 148 133 136 150 160 159 149 144 149 155 160 164 165 166 171 177 185 191 193 194 193 193 194 195 202 210 210 211 211 212 216 218 221 226 227 224 219 217 219 223 226 229 228 225 225 225 226 227 228 228 229 230 231 233 235 238 239 241 245 247 250
356 343 299 239 248 234 206 271 297 36 15 262 144 103 74 104 163 172 176 176 175 169 162 156 157 162 155 136 133 148 165 175 175 167 166 175 183 179 172 173 177 180 185 193 199 200 198 198 197 192 190 196 201 206 209 212 215 217 220 226 228 226 222 220 222 225 228 234 236 231 228 227 227 228 229 229 230 231 233 236 237 239 242 245 249 253 255
335 339 319 244 220 301 8 7 314 155 67 188 165 96 72 111 147 134 143 158 162 165 167 162 158 159 150 139 144 155 164 176 183 183 180 183 191 194 188 187 187 178 176 182 194 199 197 202 210 208 204 201 199 200 205 209 214 219 222 226 231 231 228 225 228 230 229 232 240 242 237 231 229 229 230 231 232 233 235 237 239 242 245 249 252 255 257
310 328 325 305 295 345 2 2 210 169 90 174 177 104 64 79 105 112 125 134 137 150 161 163 162 161 153 150 157 164 168 175 180 186 192 190 190 196 198 200 204 199 195 203 213 209 202 207 220 226 223 219 213 208 206 207 211 218 225 232 237 239 236 233 234 235 233 231 234 238 238 235 231 229 229 231 232 234 236 238 240 243 246 249 251 253 256
301 308 307 338 17 7 357 332 215 195 172 176 163 103 48 73 97 111 126 127 129 143 155 159 163 162 160 162 168 172 176 180 181 186 193 195 194 198 202 206 212 215 217 224 228 225 217 216 223 228 228 228 226 221 216 213 214 218 224 231 236 240 239 238 238 238 236 234 233 232 231 233 232 229 228 229 231 233 236 238 240 243 246 248 250 252 255
305 312 304 332 4 359 359 7 188 195 193 153 115 98 71 85 99 115 130 129 129 142 153 157 157 156 161 168 173 175 175 178 185 189 192 197 200 205 208 209 211 213 214 221 227 228 224 221 223 225 225 226 229 230 228 225 223 222 222 224 229 234 236 236 237 237 237 235 233 230 227 229 232 231 229 229 231 233 235 238 240 242 244 247 250 252 255
294 314 313 324 341 334 339 356 347 190 173 111 88 101 116 115 121 135 138 134 129 138 152 157 155 156 165 171 171 173 175 179 189 192 192 197 205 212 214 213 213 214 215 221 228 228 225 223 222 222 222 223 227 231 233 233 231 229 226 225 227 232 235 237 237 238 237 236 234 231 226 225 229 231 231 232 232 233 235 238 240 242 244 246 249 252 255
297 328 345 358 351 334 328 344 18 106 129 108 97 113 132 143 151 151 146 142 135 136 150 160 163 165 170 170 167 168 175 185 195 197 197 203 214 222 222 219 219 221 222 224 229 229 225 223 222 220 220 220 223 227 232 235 236 235 234 231 231 233 236 238 240 241 240 239 239 237 230 225 226 229 232 234 235 236 237 239 241 243 245 247 249 252 254
352 15 44 62 43 3 355 35 57 57 65 98 128 136 141 154 161 161 156 152 148 146 152 161 168 172 173 174 175 177 183 193 199 202 209 221 232 236 235 230 228 231 232 231 231 231 228 225 224 224 221 219 221 224 229 234 238 240 240 238 237 236 238 239 240 242 243 243 243 243 239 232 229 228 229 232 236 238 238 240 242 244 246 248 250 252 254
33 76 84 63 57 42 21 65 82 73 55 85 165 155 151 158 162 162 163 162 161 162 165 169 176 180 180 181 183 186 194 204 214 225 240 251 255 252 246 240 238 238 239 238 235 234 231 228 228 229 226 224 224 224 226 231 236 240 242 243 242 241 241 241 241 241 243 244 243 244 244 242 239 235 231 230 234 237 239 241 243 245 248 250 251 253 255
288 185 143 27 23 61 53 60 108 101 75 166 171 171 168 162 157 155 160 168 172 173 176 181 186 190 191 195 198 202 210 221 234 247 255 260 259 253 245 243 244 245 246 244 238 235 233 231 230 230 230 230 228 227 228 230 233 237 240 242 243 243 242 243 242 242 244 245 244 244 245 247 248 245 238 234 235 238 241 244 246 248 250 252 254 255 256
264 215 178 246 268 255 261 323 315 291 276 250 197 184 184 175 157 148 147 154 172 182 185 189 193 197 201 206 214 222 230 239 246 250 252 255 255 252 248 248 249 253 255 252 244 238 234 232 232 232 232 233 231 230 229 229 231 235 238 240 242 242 242 242 243 243 244 247 247 247 247 247 249 250 247 242 240 241 244 246 249 252 254 256 258 259 260
293 246 184 214 248 252 266 299 301 285 275 265 242 210 201 193 178 168 159 151 162 177 183 186 192 198 202 206 214 224 231 238 243 245 247 251 254 255 255 254 256 259 261 258 251 244 238 234 234 234 235 236 235 233 231 230 230 234 237 240 242 242 241 242 242 241 243 246 248 249 250 248 248 251 254 250 246 244 245 248 251 253 256 258 260 261 263
289 262 240 248 242 223 235 293 278 262 266 267 255 240 229 217 197 183 174 164 167 176 178 183 189 192 194 199 205 213 218 223 227 233 239 245 249 252 253 253 256 259 260 258 255 249 242 239 238 237 238 238 238 237 234 232 231 234 237 240 242 244 244 243 242 241 240 242 245 247 248 248 248 251 254 255 253 250 248 248 250 253 255 258 261 263 265
275 260 255 267 257 229 224 285 269 244 259 267 261 255 253 248 236 219 206 197 193 193 189 187 190 192 191 193 199 205 207 208 212 219 228 234 240 243 245 248 252 255 257 258 255 250 246 243 241 240 241 242 242 242 240 236 235 236 238 240 243 246 248 246 244 242 240 240 242 244 246 247 249 251 253 254 255 255 254 253 254 255 256 259 261 264 265
265 251 240 247 255 248 240 242 241 240 247 254 255 255 256 257 257 255 254 253 252 246 227 207 201 201 200 200 205 210 212 212 213 218 230 242 247 248 250 255 260 264 266 263 257 253 250 246 244 243 243 245 246 245 244 242 239 237 238 239 241 244 248 248 246 244 242 241 241 243 245 248 250 251 253 253 254 255 257 257 258 258 258 259 261 262 264
258 248 238 235 240 244 239 232 233 239 242 243 246 250 252 254 254 254 253 253 254 258 253 238 228 225 221 219 223 231 237 237 236 241 252 259 262 264 268 272 276 277 278 276 271 263 256 251 248 246 245 245 246 246 245 245 244 242 240 238 238 241 245 247 246 243 243 243 244 245 247 249 250 251 252 253 254 254 255 256 256 256 257 257 258 259 261
254 247 240 237 239 242 240 234 234 238 241 244 246 248 250 252 253 252 251 249 250 253 254 251 249 245 242 243 249 257 265 269 269 270 271 270 272 275 278 282 286 287 286 286 282 276 268 260 251 245 244 245 243 242 244 245 245 245 242 238 237 238 241 244 245 242 241 242 244 247 249 250 250 251 252 252 253 252 252 252 252 253 254 254 255 256 258
248 244 239 236 237 240 241 240 238 238 240 243 245 247 249 251 252 253 251 249 250 252 253 254 256 255 254 255 259 265 274 278 278 278 277 277 278 279 281 284 288 290 290 290 287 282 278 271 260 250 247 246 243 240 240 240 240 241 239 238 237 237 239 242 245 246 245 244 244 245 247 247 246 244 245 247 248 248 249 251 253 255 256 256 256 257 258
245 245 243 239 235 234 236 239 239 239 240 242 243 246 248 249 250 251 251 251 251 253 255 258 260 261 261 262 264 269 274 275 274 274 275 276 277 280 282 285 288 289 289 288 286 282 279 275 268 260 252 247 245 243 241 239 238 237 236 236 237 238 240 242 246 250 252 250 248 247 248 247 244 240 241 244 244 245 248 253 255 257 256 255 256 257 258
245 244 244 244 240 236 234 236 237 238 238 240 242 244 246 248 248 248 249 250 250 251 253 257 262 265 266 266 268 271 273 273 272 271 272 273 276 279 282 284 285 285 283 282 281 280 277 274 272 267 260 252 248 244 241 240 239 238 238 238 238 240 243 245 247 249 250 249 249 250 250 246 237 231 234 239 242 246 251 253 254 255 255 255 257 258 260
250 248 246 246 247 245 241 238 238 239 239 239 240 241 243 246 247 247 247 248 249 249 251 254 259 263 266 267 269 270 270 270 269 268 268 270 273 276 279 279 279 278 277 277 276 275 273 272 272 270 265 258 251 246 241 239 239 240 241 241 241 243 244 244 243 242 240 238 239 241 245 243 236 230 231 236 241 246 248 250 252 255 256 257 259 260 263
251 249 246 245 246 248 247 243 239 239 241 241 241 240 241 243 244 243 242 242 242 244 247 250 254 258 261 263 266 266 264 263 262 262 262 263 265 268 270 271 272 272 271 271 270 269 268 268 269 268 264 259 254 248 242 237 237 238 238 237 238 239 239 238 237 236 234 231 229 230 235 238 238 238 238 239 242 245 247 248 251 254 256 258 260 261 263
247 242 240 241 243 245 247 247 244 241 240 241 241 241 240 241 243 242 240 239 237 236 238 242 245 249 253 256 258 259 258 256 257 259 261 261 260 261 260 258 261 263 263 262 261 260 260 261 264 265 262 256 252 249 244 238 237 238 239 238 236 234 232 231 230 229 229 228 227 228 231 234 236 239 240 239 240 244 247 249 251 252 254 258 261 262 264
244 237 235 237 241 243 245 247 247 244 241 240 241 242 240 240 242 243 243 242 239 236 235 236 237 239 242 246 250 251 250 249 250 255 258 257 254 251 247 245 248 253 255 255 253 253 255 259 262 262 256 247 244 244 242 240 239 238 238 237 236 234 231 228 226 226 226 226 226 227 228 230 233 237 240 241 241 245 249 252 253 253 254 257 260 262 264
240 237 236 236 240 244 246 248 248 246 244 242 242 244 244 243 241 240 242 244 243 240 238 237 235 235 237 240 243 245 244 243 244 248 251 250 246 241 238 239 240 242 246 249 250 252 254 255 257 258 249 236 234 237 238 237 237 235 233 233 234 233 231 227 225 225 225 226 228 229 228 229 231 233 235 238 239 241 244 247 248 250 251 254 258 261 265
255 226 226 229 234 238 242 245 244 243 243 243 243 244 247 249 247 244 242 241 241 240 238 236 233 232 233 236 238 238 237 237 239 241 243 244 242 236 233 234 233 231 235 240 243 245 248 247 245 245 239 228 225 230 233 233 233 233 233 233 233 231 231 230 227 226 226 227 229 229 228 229 231 233 234 236 239 242 245 248 252 256 258 259 261 265 270
12 192 198 208 221 226 227 230 233 233 233 235 237 240 244 247 247 244 241 240 238 235 231 229 227 226 227 229 230 231 231 233 236 236 236 238 239 237 235 237 234 228 229 233 232 231 239 243 237 229 225 221 218 221 225 230 232 231 231 231 228 226 227 227 225 224 225 227 228 228 227 227 229 232 235 239 245 250 253 256 260 262 263 264 267 270 274
28 31 99 191 214 225 227 226 227 229 230 228 228 231 234 235 234 230 227 228 228 225 221 219 217 218 221 221 222 225 228 229 230 231 231 232 233 230 230 234 235 232 233 234 229 220 224 234 231 222 218 218 218 218 220 225 229 228 226 226 225 224 225 226 224 223 224 226 228 230 231 232 234 237 240 244 248 253 256 260 264 267 270 274 277 279 280
76 63 43 32 234 229 234 229 225 226 227 226 224 223 222 219 218 218 218 218 217 214 212 212 214 216 217 217 217 221 224 224 222 221 221 222 219 211 207 211 214 215 218 220 216 208 207 216 223 222 219 217 217 218 219 224 228 228 224 222 223 222 223 226 227 228 227 227 228 231 234 236 237 238 240 244 248 253 258 263 269 274 277 280 281 280 279
64 83 81 50 21 14 289 237 227 223 221 218 215 216 215 210 205 206 209 212 211 206 204 207 213 215 214 213 215 219 221 221 218 212 208 207 206 204 205 208 206 203 205 209 207 201 194 195 205 217 220 218 218 222 226 230 234 235 231 227 225 224 225 227 230 233 234 234 233 233 233 235 236 237 241 244 248 253 257 260 264 268 271 272 274 275 278
41 57 74 77 53 34 36 92 220 220 219 216 212 212 213 210 207 205 202 201 204 205 204 207 213 215 212 211 214 217 217 216 216 214 210 207 208 213 219 218 213 212 215 215 209 198 188 187 196 208 216 216 217 221 227 232 235 237 238 238 236 236 235 236 238 242 244 244 243 240 238 238 239 239 241 242 244 247 251 254 257 260 263 267 271 274 277
30 36 46 59 72 79 79 65 260 217 211 205 203 206 209 208 206 203 198 196 202 210 210 207 209 213 213 211 212 216 217 217 218 222 224 222 221 224 227 221 212 208 207 207 206 202 195 192 193 197 202 208 214 218 224 231 235 237 240 242 243 244 245 246 247 248 247 246 243 240 240 242 243 243 244 245 247 249 252 255 258 261 264 267 271 273 276
27 28 32 40 50 65 88 112 134 170 187 177 172 181 192 196 196 197 197 193 194 203 211 209 207 211 214 214 213 215 220 223 226 231 231 227 223 224 227 225 218 212 207 203 202 202 199 198 197 197 199 204 210 216 222 230 236 239 242 245 248 249 249 248 249 249 247 245 243 241 242 244 246 248 249 251 252 254 257 259 261 263 265 267 269 271 273
26 25 27 31 36 44 57 78 106 132 149 165 177 183 186 182 184 192 197 189 183 188 199 204 202 202 205 208 212 217 218 218 223 229 230 225 221 221 222 221 219 218 217 213 211 210 209 208 206 205 205 207 212 217 223 228 233 238 244 247 250 251 251 250 250 250 249 249 249 248 249 249 250 251 253 255 256 258 260 262 263 264 266 267 269 271 272
24 22 24 27 30 34 41 49 64 86 106 124 150 173 185 188 188 195 200 192 182 183 190 194 195 197 201 204 211 218 218 215 218 224 223 218 215 214 215 217 218 217 216 216 215 214 213 212 210 209 210 211 214 217 221 224 227 231 236 240 243 246 247 247 247 248 248 249 250 250 250 250 250 252 254 256 258 260 262 263 265 266 268 269 271 272 273
25 23 22 23 25 30 35 41 48 59 71 81 98 121 146 165 178 191 197 192 186 188 194 197 197 202 207 210 213 218 219 218 218 220 220 218 217 215 214 215 216 215 215 214 214 212 212 213 215 216 217 218 220 222 224 226 229 230 232 236 239 241 241 241 240 241 241 243 245 248 249 250 250 252 254 256 259 262 265 268 270 272 274 275 277 278 279
24 25 24 22 20 22 29 35 40 47 55 62 71 83 98 117 138 161 175 177 175 180 191 197 196 196 200 203 205 210 214 216 215 213 214 218 220 219 218 218 217 217 216 215 213 213 215 216 218 220 222 223 222 221 220 221 224 227 230 233 237 240 243 244 244 244 246 247 249 252 255 257 259 260 261 262 264 267 270 274 277 278 280 281 282 283 284
15 19 19 17 17 21 29 34 35 37 44 55 64 70 74 82 96 115 133 143 145 151 164 176 180 182 185 186 187 189 194 197 197 199 205 213 219 222 225 226 227 226 224 220 217 216 216 217 217 219 221 222 221 219 218 219 220 224 228 233 237 241 246 249 251 254 255 256 257 258 259 261 263 264 265 267 268 270 272 275 278 281 283 285 286 286 287
7 9 11 12 16 25 37 42 37 31 32 39 50 59 63 67 74 83 92 99 105 114 129 145 157 164 168 169 170 171 175 180 184 188 193 201 209 215 219 223 225 224 223 221 219 216 214 214 214 216 218 219 220 221 222 224 226 230 234 238 242 245 249 253 256 260 261 262 263 264 264 265 266 268 269 271 272 273 275 276 278 280 282 284 285 286 287
2 3 6 9 15 27 38 42 38 29 25 28 35 41 45 50 59 69 75 80 86 91 99 111 124 133 139 146 153 156 160 169 178 182 185 189 196 203 209 214 218 220 221 223 223 221 218 216 214 212 211 211 211 212 216 222 230 239 247 252 254 256 259 260 261 264 267 269 271 272 272 273 273 273 274 274 275 275 275 275 277 279 280 281 283 284 285
356 356 358 358 1 21 37 42 42 39 34 31 32 34 33 34 39 46 52 60 69 78 83 88 96 103 106 110 118 125 132 143 158 166 169 173 182 190 197 204 211 216 220 223 223 221 218 213 206 198 190 185 185 193 215 245 261 266 268 269 268 267 267 267 268 268 270 272 274 275 276 276 275 274 274 273 272 271 271 271 272 274 276 277 277 278 278
350 350 354 354 352 357 11 24 37 47 48 43 41 39 30 21 19 24 28 32 40 51 62 70 77 85 90 90 92 97 101 108 118 127 133 139 147 154 162 171 179 186 193 197 198 199 200 199 193 185 178 174 176 185 203 232 256 269 274 274 273 272 269 268 269 269 269 270 270 271 271 272 272 272 272 272 271 271 271 270 270 270 271 273 274 275 276
345 345 350 351 347 344 343 347 2 19 25 27 35 39 30 13 2 360 3 9 16 25 33 42 50 59 67 71 75 81 87 89 93 98 103 110 116 121 126 134 143 147 152 160 168 173 176 179 180 185 190 195 202 210 216 227 247 261 267 268 270 272 272 271 271 271 271 270 271 271 271 271 272 272 273 274 274 274 274 274 274 274 275 275 277 278 278
340 339 346 348 340 331 327 325 332 349 353 343 339 352 5 7 359 351 347 347 354 3 10 15 21 28 34 39 41 45 53 61 65 66 69 76 83 88 89 90 91 93 96 95 82 43 306 278 272 272 265 260 258 258 257 254 256 259 261 262 262 262 264 266 268 270 271 271 272 273 274 275 276 276 277 278 279 278 278 279 280 280 280 281 282 281 280
Height
3019 3019 3019 3022 3023 3024 3028 3033 3038 3041 3044 3046 3048 3050 3054 3057 3059 3060 3062 3064 3065 3066 3068 3069 3069 3070 3070 3070 3072 3074 3077 3079 3082 3083 3085 3088 3092 3094 3097 3101 3104 3108 3111 3114 3117 3120 3122 3124 3126 3129 3131 3133 3135 3137 3139 3140 3140 3142 3144 3145 3147 3150 3152 3154 3156 3159 3162 3164 3165 3167 3169 3171 3173 3174 3176 3178 3179 3181 3183 3184 3186 3188 3189 3190 3191 3193 3194
3015 3017 3018 3020 3023 3025 3027 3030 3034 3037 3040 3043 3046 3049 3053 3055 3057 3060 3061 3062 3064 3066 3068 3069 3069 3069 3068 3069 3071 3075 3077 3079 3081 3083 3084 3087 3091 3094 3098 3101 3105 3108 3111 3114 3117 3119 3121 3123 3125 3127 3129 3131 3133 3135 3137 3138 3139 3140 3142 3144 3145 3147 3149 3152 3155 3158 3160 3162 3164 3165 3167 3169 3170 3172 3174 3175 3177 3178 3180 3182 3184 3185 3187 3187 3188 3190 3191
3014 3015 3017 3019 3022 3025 3027 3029 3033 3035 3038 3042 3045 3048 3051 3053 3056 3059 3060 3061 3062 3065 3068 3068 3067 3067 3068 3070 3072 3074 3078 3080 3082 3084 3086 3088 3091 3095 3099 3102 3105 3108 3111 3113 3116 3118 3120 3121 3123 3125 3127 3129 3131 3133 3134 3136 3137 3138 3140 3141 3143 3145 3147 3150 3154 3156 3158 3160 3162 3163 3165 3167 3169 3170 3172 3173 3174 3176 3177 3179 3181 3183 3185 3185 3186 3187 3188
3014 3015 3017 3019 3022 3024 3025 3026 3029 3032 3035 3039 3042 3045 3048 3051 3054 3056 3058 3059 3060 3063 3066 3067 3066 3067 3068 3071 3073 3075 3077 3080 3083 3086 3088 3091 3094 3097 3100 3102 3105 3108 3110 3112 3114 3116 3118 3121 3122 3124 3126 3128 3129 3131 3132 3133 3135 3136 3138 3139 3141 3143 3145 3148 3151 3153 3155 3157 3159 3161 3163 3165 3167 3168 3170 3171 3172 3173 3175 3177 3179 3181 3182 3183 3184 3184 3186
3014 3015 3019 3021 3023 3024 3023 3023 3026 3030 3033 3037 3039 3043 3047 3050 3053 3055 3057 3058 3059 3061 3063 3064 3065 3066 3068 3071 3074 3076 3077 3080 3083 3087 3091 3094 3097 3099 3101 3103 3105 3107 3110 3111 3113 3115 3116 3118 3120 3122 3124 3126 3127 3129 3130 3132 3133 3135 3136 3137 3139 3141 3143 3145 3148 3150 3153 3155 3157 3159 3161 3163 3165 3166 3167 3168 3170 3171 3173 3175 3176 3178 3180 3181 3182 3183 3183
3016 3015 3020 3023 3023 3024 3022 3022 3026 3029 3032 3035 3036 3039 3045 3050 3052 3054 3056 3058 3059 3060 3061 3063 3064 3065 3068 3072 3075 3077 3079 3081 3084 3088 3091 3094 3096 3099 3101 3103 3105 3107 3109 3111 3112 3113 3114 3116 3118 3120 3122 3124 3126 3128 3129 3130 3131 3133 3134 3136 3137 3138 3140 3142 3144 3147 3150 3152 3154 3156 3159 3161 3162 3164 3165 3166 3168 3169 3171 3173 3174 3175 3177 3179 3180 3181 3181
3018 3016 3020 3024 3023 3021 3020 3022 3026 3029 3032 3033 3032 3037 3047 3052 3053 3054 3055 3056 3057 3058 3059 3061 3063 3065 3068 3071 3074 3077 3079 3082 3085 3088 3090 3092 3094 3096 3098 3101 3104 3106 3108 3109 3110 3112 3113 3115 3117 3119 3121 3123 3124 3126 3127 3128 3130 3131 3132 3134 3135 3136 3138 3140 3142 3144 3146 3148 3151 3153 3156 3158 3159 3161 3163 3164 3166 3167 3169 3170 3171 3173 3175 3176 3177 3179 3180
3019 3018 3021 3023 3021 3018 3019 3022 3024 3027 3031 3033 3030 3031 3038 3040 3038 3041 3048 3051 3054 3058 3058 3059 3061 3064 3066 3069 3073 3076 3078 3081 3084 3086 3087 3089 3091 3094 3097 3099 3102 3104 3106 3107 3109 3111 3113 3114 3116 3117 3119 3121 3123 3124 3125 3126 3128 3129 3130 3132 3133 3134 3136 3138 3139 3141 3143 3145 3147 3150 3152 3154 3156 3158 3160 3162 3164 3165 3166 3168 3169 3171 3172 3173 3174 3176 3177
3021 3020 3020 3020 3017 3016 3017 3019 3020 3023 3027 3031 3029 3026 3029 3032 3032 3039 3046 3048 3051 3055 3057 3058 3061 3062 3063 3067 3072 3077 3079 3080 3081 3082 3085 3087 3090 3093 3096 3098 3101 3103 3105 3107 3109 3111 3112 3114 3115 3116 3118 3119 3121 3122 3124 3125 3126 3127 3128 3129 3131 3132 3134 3135 3137 3139 3140 3142 3144 3147 3149 3151 3153 3155 3157 3159 3161 3163 3164 3165 3166 3168 3169 3170 3172 3173 3174
3022 3021 3021 3019 3018 3016 3015 3017 3021 3023 3025 3028 3027 3024 3028 3034 3038 3042 3047 3048 3049 3052 3055 3058 3060 3060 3062 3067 3072 3075 3077 3078 3079 3081 3084 3086 3089 3092 3095 3098 3100 3102 3104 3106 3108 3110 3111 3113 3114 3116 3117 3118 3119 3120 3122 3123 3124 3125 3126 3128 3129 3130 3131 3133 3135 3136 3138 3139 3141 3143 3145 3147 3149 3151 3154 3156 3158 3160 3161 3162 3164 3165 3167 3168 3169 3170 3170
3023 3023 3023 3021 3019 3017 3016 3017 3020 3022 3023 3025 3024 3025 3032 3036 3037 3040 3044 3046 3046 3048 3052 3057 3059 3059 3062 3066 3069 3072 3074 3077 3079 3080 3082 3085 3088 3091 3094 3097 3098 3100 3102 3105 3106 3107 3109 3111 3112 3114 3115 3116 3117 3118 3120 3121 3122 3123 3125 3126 3127 3128 3129 3131 3132 3134 3135 3137 3138 3140 3142 3144 3146 3148 3150 3152 3155 3156 3158 3160 3161 3162 3164 3164 3165 3166 3167
3024 3024 3024 3023 3021 3020 3019 3017 3017 3020 3023 3022 3022 3030 3039 3039 3036 3039 3042 3042 3042 3045 3050 3055 3058 3058 3060 3062 3065 3069 3072 3074 3077 3080 3082 3085 3088 3091 3093 3095 3096 3098 3101 3102 3102 3104 3107 3109 3111 3112 3112 3113 3115 3116 3118 3119 3120 3122 3123 3124 3125 3126 3127 3128 3130 3131 3132 3134 3135 3137 3139 3141 3142 3144 3146 3148 3150 3152 3154 3156 3158 3159 3160 3161 3161 3162 3163
3025 3025 3025 3024 3022 3021 3020 3018 3018 3019 3021 3021 3025 3035 3042 3040 3037 3038 3040 3040 3040 3043 3046 3048 3050 3053 3055 3057 3061 3066 3070 3074 3077 3080 3083 3086 3088 3090 3091 3093 3095 3097 3099 3099 3099 3101 3105 3108 3109 3110 3111 3112 3113 3114 3115 3117 3118 3120 3121 3122 3123 3124 3125 3126 3127 3128 3130 3131 3132 3134 3136 3137 3139 3141 3142 3144 3146 3148 3150 3152 3154 3155 3156 3157 3158 3159 3160
3026 3026 3025 3025 3023 3021 3020 3019 3018 3017 3020 3025 3032 3037 3039 3039 3038 3038 3039 3039 3040 3042 3043 3044 3046 3049 3053 3057 3061 3066 3070 3074 3077 3079 3082 3085 3087 3087 3088 3091 3093 3095 3096 3097 3097 3100 3103 3105 3106 3107 3108 3109 3111 3112 3113 3114 3115 3117 3118 3119 3120 3121 3122 3123 3124 3126 3127 3128 3129 3131 3132 3134 3136 3137 3139 3141 3143 3144 3146 3148 3149 3151 3152 3153 3154 3155 3156
3025 3025 3025 3027 3027 3024 3021 3020 3019 3019 3023 3030 3035 3036 3036 3036 3038 3038 3039 3040 3040 3042 3045 3046 3047 3049 3053 3058 3063 3067 3071 3074 3076 3078 3081 3083 3084 3085 3087 3090 3092 3093 3094 3095 3096 3098 3100 3101 3102 3103 3105 3106 3108 3108 3110 3111 3113 3114 3115 3117 3118 3119 3120 3121 3122 3123 3124 3125 3126 3127 3129 3131 3132 3134 3136 3137 3139 3141 3142 3144 3145 3146 3148 3149 3150 3151 3151
3026 3027 3028 3029 3029 3026 3024 3024 3024 3026 3029 3032 3034 3035 3035 3035 3037 3038 3040 3041 3042 3043 3045 3047 3048 3051 3055 3059 3063 3067 3071 3073 3075 3078 3080 3081 3082 3083 3086 3089 3091 3091 3091 3092 3094 3096 3097 3098 3099 3100 3101 3103 3104 3105 3107 3109 3110 3111 3113 3114 3116 3117 3118 3119 3120 3121 3122 3123 3123 3124 3125 3127 3128 3130 3132 3134 3135 3137 3138 3139 3141 3142 3143 3145 3146 3146 3147
3027 3028 3029 3029 3028 3027 3027 3028 3028 3029 3031 3032 3034 3035 3036 3035 3037 3039 3040 3042 3044 3045 3047 3048 3050 3052 3056 3059 3063 3066 3069 3071 3073 3076 3077 3078 3080 3082 3084 3087 3088 3087 3088 3089 3091 3093 3094 3095 3096 3097 3098 3099 3101 3102 3104 3106 3107 3108 3109 3111 3113 3114 3115 3116 3117 3119 3119 3120 3121 3121 3122 3123 3124 3126 3128 3129 3131 3132 3134 3135 3137 3138 3139 3140 3141 3142 3143
3028 3029 3028 3028 3027 3028 3029 3031 3031 3030 3030 3031 3033 3035 3037 3037 3038 3039 3041 3043 3044 3046 3049 3050 3051 3053 3056 3058 3062 3065 3068 3070 3072 3074 3075 3076 3078 3079 3081 3083 3084 3084 3085 3086 3088 3090 3091 3092 3093 3093 3095 3096 3098 3100 3101 3102 3104 3105 3106 3107 3109 3111 3112 3113 3114 3116 3117 3117 3118 3119 3119 3120 3121 3122 3123 3125 3126 3128 3129 3131 3133 3134 3135 3136 3137 3138 3139
3029 3029 3028 3027 3028 3029 3030 3033 3033 3031 3030 3031 3033 3034 3036 3037 3038 3038 3040 3042 3045 3047 3048 3049 3050 3052 3055 3058 3061 3064 3066 3068 3070 3072 3073 3074 3075 3077 3079 3080 3080 3081 3082 3083 3085 3086 3088 3089 3089 3090 3092 3093 3095 3096 3098 3100 3101 3102 3102 3104 3105 3107 3108 3109 3111 3112 3113 3114 3115 3116 3116 3116 3117 3118 3119 3121 3122 3124 3125 3127 3128 3129 3130 3131 3132 3133 3134
3028 3029 3029 3028 3028 3030 3033 3035 3034 3031 3029 3030 3032 3033 3034 3036 3037 3037 3038 3040 3043 3045 3046 3046 3048 3050 3053 3056 3059 3061 3064 3067 3069 3070 3072 3073 3074 3075 3077 3078 3078 3078 3079 3080 3082 3083 3084 3085 3086 3087 3089 3090 3092 3093 3094 3096 3098 3098 3099 3100 3101 3103 3104 3105 3106 3108 3110 3111 3111 3112 3112 3112 3113 3114 3115 3117 3118 3119 3121 3122 3124 3124 3126 3126 3127 3128 3130
3027 3029 3029 3027 3027 3030 3033 3033 3031 3030 3029 3029 3030 3031 3032 3034 3036 3036 3036 3038 3041 3043 3044 3045 3047 3049 3052 3055 3058 3060 3063 3065 3067 3069 3070 3071 3072 3073 3074 3075 3076 3076 3077 3078 3079 3080 3081 3082 3083 3085 3086 3087 3089 3090 3091 3093 3094 3095 3096 3097 3098 3099 3100 3101 3103 3104 3105 3106 3107 3107 3108 3108 3110 3111 3112 3113 3114 3115 3117 3118 3119 3120 3121 3122 3122 3124 3125
3024 3026 3027 3026 3026 3027 3028 3027 3027 3029 3030 3029 3029 3031 3032 3034 3035 3036 3037 3039 3040 3042 3043 3045 3047 3049 3052 3055 3057 3059 3062 3063 3065 3067 3068 3069 3070 3071 3071 3072 3073 3074 3075 3075 3076 3077 3077 3078 3080 3081 3083 3084 3086 3087 3088 3089 3091 3092 3093 3094 3094 3095 3096 3098 3099 3100 3101 3102 3102 3103 3103 3104 3106 3107 3108 3109 3110 3111 3112 3113 3115 3116 3116 3117 3118 3119 3120
3022 3024 3026 3026 3026 3026 3026 3027 3027 3029 3030 3030 3031 3032 3033 3034 3036 3038 3040 3041 3042 3043 3044 3046 3048 3050 3052 3054 3056 3058 3060 3061 3063 3064 3066 3066 3067 3068 3068 3069 3070 3071 3072 3073 3073 3074 3074 3075 3076 3078 3080 3081 3082 3083 3084 3086 3087 3088 3089 3090 3091 3092 3093 3094 3095 3096 3097 3097 3097 3098 3099 3101 3102 3103 3104 3105 3106 3107 3108 3109 3110 3111 3112 3113 3114 3115 3115
3021 3022 3024 3023 3022 3023 3026 3028 3028 3028 3028 3029 3030 3031 3033 3034 3035 3038 3040 3041 3041 3042 3044 3045 3047 3049 3051 3052 3054 3056 3057 3059 3060 3062 3063 3063 3064 3065 3065 3066 3067 3068 3069 3069 3070 3071 3072 3072 3074 3075 3077 3077 3078 3080 3081 3082 3083 3084 3086 3087 3088 3089 3090 3090 3091 3092 3092 3093 3094 3095 3096 3097 3099 3099 3100 3101 3102 3103 3104 3106 3107 3107 3108 3109 3110 3111 3111
3017 3018 3020 3020 3019 3019 3023 3027 3027 3027 3028 3029 3030 3030 3031 3032 3033 3036 3038 3040 3040 3041 3043 3045 3046 3048 3049 3051 3053 3054 3056 3057 3058 3059 3060 3061 3061 3062 3063 3064 3064 3065 3065 3066 3067 3068 3068 3070 3071 3072 3073 3074 3075 3076 3077 3078 3080 3081 3082 3083 3084 3085 3086 3086 3087 3088 3089 3090 3091 3092 3093 3094 3095 3096 3097 3098 3099 3100 3101 3102 3103 3104 3105 3106 3107 3107 3108
3014 3014 3016 3016 3016 3017 3020 3023 3024 3025 3026 3027 3028 3029 3029 3030 3031 3033 3036 3038 3039 3041 3042 3044 3045 3047 3048 3049 3051 3053 3055 3056 3057 3057 3058 3059 3060 3060 3061 3062 3062 3063 3063 3064 3064 3065 3065 3066 3068 3070 3070 3071 3071 3073 3074 3075 3076 3077 3078 3079 3080 3081 3082 3083 3084 3085 3086 3088 3089 3089 3090 3091 3092 3093 3094 3095 3096 3097 3098 3099 3100 3101 3102 3103 3104 3104 3105
3010 3011 3012 3011 3011 3013 3017 3018 3019 3021 3022 3023 3025 3026 3027 3028 3029 3031 3033 3035 3037 3039 3041 3043 3044 3045 3046 3047 3049 3051 3053 3054 3055 3056 3056 3057 3058 3058 3059 3059 3060 3060 3060 3061 3061 3062 3062 3063 3065 3067 3067 3068 3068 3070 3071 3072 3073 3074 3075 3076 3077 3078 3079 3081 3082 3083 3084 3085 3086 3087 3087 3088 3089 3090 3091 3092 3093 3094 3095 3097 3098 3098 3099 3100 3100 3101 3101
3006 3008 3009 3007 3007 3010 3014 3015 3015 3016 3017 3018 3020 3022 3024 3025 3026 3028 3030 3033 3035 3036 3038 3041 3042 3043 3043 3044 3046 3048 3051 3052 3053 3054 3054 3055 3056 3056 3057 3057 3058 3058 3058 3058 3059 3059 3059 3060 3061 3063 3064 3065 3066 3066 3068 3069 3070 3071 3072 3073 3074 3076 3077 3078 3080 3081 3081 3082 3083 3084 3085 3086 3087 3088 3090 3090 3091 3092 3093 3094 3095 3095 3096 3097 3097 3098 3098
3001 3003 3005 3004 3004 3007 3010 3011 3011 3012 3013 3015 3017 3018 3020 3021 3022 3024 3027 3030 3032 3034 3036 3038 3040 3041 3041 3042 3043 3045 3047 3049 3050 3051 3052 3053 3053 3054 3054 3055 3055 3055 3055 3055 3056 3056 3056 3057 3058 3059 3061 3062 3063 3063 3064 3066 3067 3068 3069 3071 3072 3074 3075 3076 3077 3078 3079 3080 3081 3082 3082 3083 3084 3086 3087 3087 3088 3090 3090 3091 3091 3092 3093 3093 3094 3095 3095
2996 2997 2999 2999 3000 3001 3003 3005 3006 3008 3010 3012 3014 3015 3017 3017 3018 3020 3023 3026 3028 3030 3033 3036 3037 3038 3038 3039 3040 3041 3043 3045 3046 3047 3049 3049 3050 3051 3051 3051 3052 3052 3052 3053 3053 3053 3053 3054 3055 3056 3057 3058 3059 3060 3061 3062 3064 3065 3066 3068 3070 3071 3073 3074 3075 3076 3077 3078 3079 3079 3079 3080 3081 3082 3083 3084 3085 3086 3087 3087 3088 3089 3090 3090 3091 3091 3091
2990 2990 2991 2993 2994 2995 2997 2999 3002 3004 3006 3008 3009 3011 3012 3014 3014 3016 3018 3021 3023 3027 3030 3032 3034 3034 3035 3036 3037 3038 3040 3041 3042 3043 3045 3046 3047 3048 3048 3049 3049 3049 3049 3049 3050 3050 3050 3051 3052 3054 3054 3054 3055 3057 3058 3059 3060 3062 3063 3065 3067 3069 3070 3071 3072 3073 3073 3074 3075 3075 3076 3077 3078 3079 3080 3080 3081 3082 3083 3084 3086 3086 3086 3087 3087 3087 3087
2985 2984 2985 2987 2989 2990 2992 2994 2996 2999 3001 3003 3005 3006 3008 3010 3011 3012 3015 3017 3019 3022 3025 3028 3029 3030 3032 3033 3034 3035 3037 3038 3039 3041 3042 3043 3044 3045 3045 3046 3046 3046 3045 3046 3046 3047 3048 3049 3050 3051 3051 3052 3053 3053 3055 3056 3058 3059 3060 3062 3063 3065 3066 3067 3068 3068 3069 3070 3071 3072 3073 3074 3075 3076 3077 3078 3078 3079 3079 3081 3082 3082 3083 3083 3083 3083 3083
2980 2980 2981 2983 2985 2987 2988 2990 2992 2994 2996 2998 3000 3002 3004 3006 3007 3009 3011 3012 3014 3017 3020 3022 3024 3026 3029 3030 3031 3032 3034 3036 3037 3038 3039 3040 3041 3042 3042 3043 3043 3043 3042 3043 3043 3044 3045 3047 3049 3049 3050 3050 3050 3051 3052 3053 3055 3055 3056 3057 3059 3060 3061 3062 3064 3064 3065 3067 3068 3069 3070 3071 3071 3072 3073 3074 3074 3075 3075 3076 3077 3078 3078 3078 3079 3079 3079
2977 2977 2979 2980 2982 2983 2985 2987 2988 2989 2991 2993 2995 2997 2999 3001 3002 3005 3007 3008 3010 3012 3015 3018 3020 3023 3026 3028 3029 3030 3032 3034 3034 3035 3035 3035 3037 3038 3039 3039 3040 3040 3039 3040 3041 3042 3043 3045 3047 3048 3049 3049 3049 3049 3049 3051 3051 3052 3053 3054 3055 3057 3058 3059 3060 3061 3062 3063 3065 3066 3066 3067 3068 3069 3069 3069 3069 3070 3071 3071 3072 3074 3074 3074 3075 3076 3076
2976 2976 2977 2978 2979 2981 2982 2983 2984 2985 2987 2988 2990 2992 2994 2996 2998 3000 3003 3005 3007 3010 3012 3015 3018 3021 3023 3025 3027 3028 3030 3031 3031 3032 3032 3032 3033 3034 3036 3037 3037 3037 3037 3038 3039 3040 3041 3043 3045 3046 3047 3048 3048 3048 3048 3048 3049 3050 3052 3052 3053 3054 3055 3056 3057 3058 3059 3060 3061 3062 3063 3064 3065 3066 3066 3066 3067 3068 3068 3068 3069 3071 3071 3071 3071 3072 3073
2978 2977 2977 2977 2978 2979 2980 2981 2982 2983 2985 2986 2987 2989 2990 2991 2993 2996 2998 3001 3004 3006 3009 3012 3015 3017 3019 3022 3025 3026 3027 3028 3029 3030 3031 3032 3032 3033 3034 3035 3036 3035 3035 3036 3037 3037 3038 3040 3042 3043 3045 3046 3046 3047 3047 3047 3047 3048 3049 3050 3051 3052 3052 3053 3054 3056 3057 3058 3059 3059 3061 3062 3063 3064 3064 3065 3065 3065 3065 3065 3066 3066 3067 3067 3067 3068 3068
2979 2978 2978 2978 2977 2978 2978 2979 2980 2981 2982 2983 2985 2986 2987 2988 2990 2992 2995 2998 3000 3003 3006 3010 3012 3014 3016 3019 3022 3023 3024 3025 3026 3027 3028 3029 3030 3031 3031 3033 3034 3033 3032 3032 3033 3034 3035 3036 3038 3040 3042 3043 3045 3046 3046 3046 3047 3047 3048 3048 3049 3050 3050 3051 3052 3054 3055 3056 3057 3058 3059 3060 3061 3061 3062 3062 3062 3063 3063 3063 3063 3063 3063 3063 3063 3063 3063
2983 2980 2979 2979 2978 2978 2978 2978 2978 2979 2980 2981 2983 2984 2986 2987 2988 2990 2993 2995 2998 3001 3004 3007 3008 3011 3014 3017 3019 3020 3022 3022 3023 3024 3025 3026 3027 3028 3029 3030 3031 3031 3030 3029 3030 3031 3032 3033 3035 3037 3039 3041 3043 3044 3045 3045 3046 3046 3047 3047 3048 3048 3049 3050 3051 3052 3052 3053 3055 3057 3057 3058 3058 3059 3059 3059 3059 3059 3059 3060 3060 3059 3059 3059 3059 3059 3059
2988 2984 2982 2980 2980 2979 2978 2978 2978 2978 2979 2980 2982 2983 2985 2986 2987 2988 2990 2993 2996 2999 3001 3003 3005 3008 3011 3013 3016 3017 3018 3019 3020 3021 3022 3022 3023 3025 3027 3027 3028 3029 3029 3030 3030 3031 3030 3031 3032 3035 3037 3039 3041 3042 3043 3043 3043 3044 3045 3046 3047 3048 3049 3049 3050 3050 3051 3052 3054 3055 3056 3056 3056 3056 3056 3056 3057 3057 3056 3056 3056 3056 3056 3056 3055 3055 3055
2993 2990 2987 2984 2982 2981 2979 2979 2979 2979 2979 2980 2981 2982 2983 2985 2986 2987 2989 2992 2994 2996 2997 2999 3003 3007 3009 3010 3012 3014 3015 3016 3018 3019 3020 3020 3022 3023 3024 3025 3026 3027 3028 3029 3030 3030 3030 3031 3032 3034 3036 3037 3039 3040 3041 3042 3042 3043 3044 3045 3046 3046 3047 3048 3048 3049 3050 3051 3052 3053 3053 3053 3053 3053 3053 3053 3054 3054 3054 3053 3053 3053 3053 3052 3052 3051 3051
2998 2996 2993 2990 2987 2984 2981 2980 2979 2979 2980 2980 2980 2981 2982 2984 2985 2987 2989 2990 2992 2993 2994 2997 3001 3004 3006 3007 3009 3011 3013 3014 3016 3017 3018 3020 3021 3022 3022 3023 3024 3025 3026 3027 3028 3029 3030 3031 3032 3034 3035 3036 3037 3038 3039 3040 3040 3041 3042 3042 3043 3044 3045 3045 3046 3047 3047 3048 3049 3049 3049 3049 3050 3050 3050 3050 3050 3050 3050 3050 3049 3049 3049 3048 3048 3047 3047
3003 3001 2999 2996 2993 2990 2987 2984 2981 2980 2980 2980 2981 2981 2983 2984 2986 2987 2989 2989 2990 2991 2993 2995 2998 3001 3003 3005 3007 3009 3011 3013 3014 3015 3016 3018 3019 3020 3021 3022 3022 3023 3024 3025 3026 3027 3028 3029 3031 3032 3033 3034 3035 3036 3037 3038 3038 3039 3040 3040 3041 3041 3042 3042 3043 3044 3044 3045 3045 3045 3046 3046 3046 3046 3046 3047 3046 3046 3046 3046 3045 3045 3045 3044 3044 3043 3043
3007 3005 3003 3000 2998 2995 2993 2990 2987 2984 2982 2981 2982 2982 2983 2984 2985 2987 2988 2990 2991 2991 2992 2994 2997 2999 3001 3003 3005 3008 3010 3011 3012 3013 3015 3016 3017 3017 3019 3020 3020 3021 3022 3023 3024 3025 3026 3027 3029 3030 3031 3032 3032 3033 3034 3035 3036 3037 3037 3038 3038 3039 3039 3039 3040 3040 3041 3041 3042 3042 3042 3043 3043 3043 3043 3043 3043 3042 3042 3042 3042 3042 3041 3041 3040 3040 3040
3010 3007 3005 3004 3002 3000 2998 2996 2994 2991 2988 2987 2986 2985 2984 2984 2986 2987 2988 2989 2991 2992 2992 2993 2994 2997 2999 3001 3003 3006 3008 3009 3011 3012 3013 3014 3014 3015 3016 3017 3018 3019 3020 3021 3022 3023 3024 3025 3026 3028 3028 3029 3030 3031 3032 3034 3034 3035 3035 3036 3036 3036 3037 3037 3037 3038 3038 3038 3039 3039 3039 3039 3040 3040 3040 3040 3039 3039 3039 3039 3039 3038 3038 3037 3037 3037 3036
3012 3010 3008 3006 3005 3003 3001 2999 2998 2996 2995 2994 2992 2990 2988 2988 2988 2989 2990 2990 2990 2991 2991 2991 2992 2995 2997 3000 3002 3004 3006 3007 3009 3010 3012 3012 3013 3013 3014 3015 3016 3017 3018 3019 3020 3022 3023 3024 3024 3025 3026 3027 3028 3029 3030 3031 3032 3033 3034 3034 3034 3035 3035 3035 3035 3036 3036 3036 3037 3037 3037 3037 3037 3037 3037 3037 3037 3037 3036 3036 3036 3035 3035 3034 3034 3034 3033
3014 3013 3011 3009 3008 3006 3004 3003 3001 3001 3000 2999 2997 2995 2994 2993 2992 2992 2993 2993 2992 2992 2991 2992 2993 2995 2997 2999 3000 3002 3003 3004 3006 3008 3009 3010 3011 3012 3013 3014 3015 3016 3017 3018 3019 3020 3021 3022 3023 3023 3024 3024 3025 3026 3027 3028 3030 3030 3031 3032 3032 3033 3033 3033 3033 3033 3034 3034 3034 3034 3034 3034 3034 3034 3033 3033 3033 3033 3033 3033 3032 3032 3031 3031 3031 3030 3030
3015 3014 3013 3012 3010 3009 3007 3006 3005 3004 3003 3002 3000 2998 2998 2998 2997 2996 2996 2996 2996 2995 2994 2995 2996 2997 2998 2999 3000 3000 3001 3002 3003 3004 3006 3008 3009 3010 3011 3012 3013 3014 3015 3016 3017 3018 3019 3020 3021 3021 3022 3022 3023 3024 3026 3026 3027 3028 3029 3029 3030 3030 3030 3030 3031 3031 3031 3030 3030 3030 3030 3031 3031 3030 3030 3030 3030 3030 3030 3030 3029 3029 3029 3029 3028 3028 3028
3017 3015 3014 3014 3013 3012 3010 3009 3008 3006 3005 3004 3003 3002 3001 3001 3000 2999 2999 2999 2999 2998 2998 2998 2999 3000 3000 3001 3001 3001 3001 3002 3003 3003 3004 3005 3007 3008 3009 3010 3012 3013 3014 3014 3015 3016 3016 3017 3018 3019 3020 3020 3021 3023 3023 3024 3025 3026 3026 3027 3028 3028 3028 3028 3029 3028 3028 3028 3028 3028 3028 3028 3028 3027 3027 3027 3027 3027 3027 3027 3027 3026 3026 3026 3026 3025 3025
3018 3017 3016 3015 3014 3014 3013 3011 3010 3009 3007 3006 3005 3005 3004 3003 3003 3002 3002 3001 3001 3001 3001 3001 3001 3002 3003 3003 3003 3003 3002 3002 3003 3004 3004 3005 3006 3007 3008 3009 3010 3011 3012 3013 3014 3014 3015 3015 3016 3017 3018 3018 3020 3021 3022 3022 3023 3024 3025 3025 3026 3026 3026 3027 3027 3026 3026 3026 3026 3025 3025 3025 3025 3024 3024 3024 3024 3024 3024 3024 3024 3024 3023 3023 3022 3022 3022
3019 3017 3016 3015 3014 3014 3013 3012 3012 3011 3010 3009 3009 3008 3007 3006 3006 3005 3004 3004 3003 3003 3003 3003 3003 3004 3004 3005 3005 3005 3004 3004 3004 3005 3005 3005 3006 3007 3008 3008 3009 3010 3011 3012 3013 3013 3014 3014 3015 3016 3016 3017 3018 3019 3020 3021 3022 3023 3023 3024 3024 3024 3025 3025 3024 3024 3024 3023 3023 3023 3023 3022 3021 3021 3021 3021 3020 3020 3020 3020 3021 3021 3020 3020 3019 3019 3019
3019 3018 3017 3016 3015 3014 3013 3013 3013 3012 3012 3011 3011 3010 3009 3008 3008 3007 3007 3006 3005 3005 3005 3004 3005 3005 3005 3006 3006 3006 3006 3006 3006 3006 3006 3007 3007 3008 3008 3009 3010 3010 3011 3012 3013 3013 3014 3014 3015 3016 3016 3017 3017 3018 3018 3019 3020 3021 3022 3022 3023 3023 3023 3022 3022 3022 3022 3021 3021 3020 3020 3019 3019 3018 3018 3017 3017 3017 3017 3017 3017 3017 3017 3017 3017 3016 3015
3019 3018 3017 3016 3015 3014 3013 3013 3013 3013 3013 3012 3012 3011 3011 3010 3009 3008 3008 3007 3007 3006 3006 3006 3006 3006 3007 3007 3006 3006 3006 3007 3007 3007 3007 3007 3008 3008 3009 3009 3010 3010 3011 3012 3012 3012 3013 3013 3014 3015 3016 3016 3016 3017 3017 3018 3019 3019 3020 3020 3020 3020 3020 3019 3019 3019 3019 3019 3019 3018 3017 3017 3016 3015 3015 3014 3014 3013 3013 3013 3013 3013 3013 3013 3013 3012 3011